Regional Weather Roundup
Issued by NWS

Home | Current Version | Previous Version | Graphics & Text | Print | Product List | Glossary On
Versions: 1 2 3 4 5 6 7 8 9 10 11 12 13 14 15 16 17 18 19 20 21 22 23 24 25 26 27 28 29 30 31 32 33 34 35 36 37 38 39 40 41 42 43 44 45 46 47 48 49 50
000
ASUS43 KFSD 260710
RWRSD

WEATHER ROUNDUP FOR SOUTH DAKOTA
NATIONAL WEATHER SERVICE SIOUX FALLS SD
200 AM CDT SAT JUL 26 2014

NOTE: "FAIR" INDICATES FEW OR NO CLOUDS BELOW 12,000 FEET WITH NO
SIGNIFICANT WEATHER AND/OR OBSTRUCTIONS TO VISIBILITY.


SDZ001>005-009-010-012>017-260800-
NORTHWEST AND NORTH CENTRAL SOUTH DAKOTA

CITY           SKY/WX    TMP DP  RH WIND       PRES   REMARKS
BUFFALO          N/A     63  51  65 W6        29.84S
FAITH            N/A     65  50  58 SE3       29.85R
MOBRIDGE       PTCLDY    64  60  87 SE9       29.81S
$$

SDZ012>016-024>037-041>051-057-063-072>074-260800-
SOUTHWEST AND SOUTH CENTRAL SOUTH DAKOTA

CITY           SKY/WX    TMP DP  RH WIND       PRES   REMARKS
RAPID CTY ARPT CLEAR     63  53  70 N12       29.89R
PIERRE         CLOUDY    70  69  97 E6        29.81R
CUSTER         CLEAR     59  47  64 N6        30.03R
ELLSWORTH AFB  CLEAR     69  50  52 NE8       29.90R
PHILIP         CLEAR     64  52  64 E6        29.82S
PINE RIDGE     CLEAR     65  57  75 E6        29.85S
WINNER         FAIR      71  66  84 E12       29.82F
$$

SDZ004>011-016>023-039-040-260800-
NORTHEAST SOUTH DAKOTA

CITY           SKY/WX    TMP DP  RH WIND       PRES   REMARKS
ABERDEEN       CLEAR     55  55 100 CALM      29.83F
WATERTOWN      FOG       65  65 100 SE3       29.86F VSB 1
SISSETON         N/A     61  59  93 CALM      29.83S
$$

SDZ017-020-022-023-036>040-048>070-260800-
SOUTHEAST SOUTH DAKOTA

CITY           SKY/WX    TMP DP  RH WIND       PRES   REMARKS
SIOUX FALLS    MOCLDY    70  68  93 N5        29.86S
HURON          MOCLDY    68  65  90 NE8       29.83F
CHAMBERLAIN    CLOUDY    69  66  90 E3        29.86R
MITCHELL       PTCLDY    69  67  93 E5        29.84F
YANKTON        PTCLDY    72  70  94 N5        29.84S
$$

ABBREVIATIONS USED IN REMARKS
   TC - TEMPERATURE IN CELSIUS
  WCI - WIND CHILL INDEX
   HX - HEAT INDEX
  VSB - VISIBILITY




USA.gov is the U.S. government's official web portal to all federal, state and local government web resources and services.